"2009-12-25 00:00:00",1532444,9.67,319.2,4.483,0.794,0.787,97.55267,-6.933,-5.534,36.13,0,109.2,13.71,-6.21,281.2
"2009-12-25 00:00:30",1532445,10.03,318.8,3.401,0.801,0.925,97.55322,-6.931,-5.569,36.28,0,109.2,13.71,-6.20,280.8
"2009-12-25 00:01:00",1532446,9.37,316.7,4.781,0.686,0.908,97.56097,-6.912,-5.562,36.17,0,109.2,13.71,-6.18,278.7
"2009-12-25 00:01:30",1532447,10.3,316,4.94,0.709,1.012,97.56457,-6.902,-5.563,36.04,0,109.2,13.71,-6.17,278.0
"2009-12-25 00:02:00",1532448,9.52,314.9,5.222,0.669,0.972,97.56001,-6.914,-5.565,35.84,0,109.2,13.72,-6.19,276.9
"2009-12-25 00:02:30",1532449,10.49,319.1,4.972,0.837,1.127,97.55419,-6.929,-5.577,35.76,0,109.1,13.72,-6.20,281.1
"2009-12-25 00:03:00",1532450,10.9,318.7,4.114,0.773,0.833,97.54821,-6.944,-5.582,35.65,0,109.2,13.73,-6.22,280.7
"2009-12-25 00:03:30",1532451,9.47,306.1,6.037,0.982,0.96,97.54672,-6.948,-5.593,36.03,0,109.2,13.73,-6.22,268.1
"2009-12-25 00:04:00",1532452,10.42,310.7,5.693,1.124,1.013,97.5419,-6.96,-5.595,36.45,0,109.2,13.73,-6.23,272.7
"2009-12-25 00:04:30",1532453,10.66,318.6,4.034,0.473,1.019,97.54271,-6.958,-5.605,35.92,0,109.1,13.73,-6.23,280.6
"2009-12-25 00:05:00",1532454,10.82,319,4.299,0.637,1.107,97.54271,-6.958,-5.595,35.75,0,109.1,13.73,-6.23,281.0
"2009-12-25 00:05:30",1532455,10.49,321.3,3.449,0.734,1.031,97.54188,-6.96,-5.617,35.64,0,109.1,13.73,-6.23,283.3
"2009-12-25 00:06:00",1532456,10.17,321.1,4.28,0.754,1.092,97.54326,-6.957,-5.621,35.59,0,109.1,13.73,-6.23,283.1
"2009-12-25 00:06:30",1532457,10.6,323.5,3.514,0.569,1.245,97.5452,-6.952,-5.637,35.67,0,109.1,13.73,-6.22,285.5
"2009-12-25 00:07:00",1532458,10.33,324.3,3.768,0.558,1.27,97.54548,-6.951,-5.636,35.66,0,109.1,13.73,-6.22,286.3
"2009-12-25 00:07:30",1532459,10.59,323,3.69,0.612,1.411,97.54399,-6.955,-5.646,35.42,0,109.1,13.73,-6.23,285.0
"2009-12-25 00:08:00",1532460,10.85,324.3,3.463,0.598,1.548,97.53689,-6.973,-5.652,35.21,0,109.1,13.73,-6.25,286.3
"2009-12-25 00:08:30",1532461,10.66,324.5,4.253,0.678,1.297,97.53374,-6.981,-5.642,35.33,0,109.1,13.73,-6.25,286.5
"2009-12-25 00:09:00",1532462,10.67,326.7,3.393,0.525,1.513,97.5312,-6.987,-5.637,35.42,0,109.1,13.73,-6.26,288.7
"2009-12-25 00:09:30",1532463,10.28,325.4,4.176,0.472,1.549,97.52921,-6.992,-5.647,35.27,0,109.1,13.73,-6.27,287.4
"2009-12-25 00:10:00",1532464,10.06,326.6,3.467,0.625,1.509,97.53063,-6.989,-5.64,35.33,0,109.1,13.73,-6.26,288.6
"2009-12-25 00:10:30",1532465,9.76,323.4,3.895,0.533,1.328,97.5295,-6.992,-5.665,35.45,0,109.1,13.74,-6.26,285.4
"2009-12-25 00:11:00",1532466,9.68,323.9,4.928,0.525,1.182,97.52808,-6.995,-5.655,35.5,0,109.1,13.74,-6.27,285.9
"2009-12-25 00:11:30",1532467,9.58,326.2,4.092,0.605,1.285,97.52695,-6.998,-5.665,35.56,0,109.1,13.74,-6.27,288.2
"2009-12-25 00:12:00",1532468,9.59,326.2,4.061,0.583,1.37,97.52525,-7.003,-5.648,35.6,0,109.1,13.74,-6.28,288.2
"2009-12-25 00:12:30",1532469,9.44,328.2,4.291,0.492,1.224,97.52382,-7.006,-5.66,35.71,0,109.1,13.74,-6.28,290.2
"2009-12-25 00:13:00",1532470,9.58,323.5,5.171,0.534,1.16,97.52297,-7.008,-5.651,35.83,0,109.1,13.74,-6.28,285.5
"2009-12-25 00:13:30",1532471,8.95,318.9,5.121,0.7,0.916,97.52099,-7.013,-5.661,36.06,0,109.1,13.73,-6.29,280.9
"2009-12-25 00:14:00",1532472,8.92,318.2,4.599,0.603,0.852,97.51815,-7.021,-5.657,36.28,0,109.1,13.73,-6.29,280.2
"2009-12-25 00:14:30",1532473,9.61,319,4.857,0.608,0.959,97.5156,-7.027,-5.669,36.32,0,109.1,13.73,-6.30,281.0
"2009-12-25 00:15:00",1532474,9.99,323.4,3.882,0.622,1.065,97.51531,-7.028,-5.661,36.14,0,109.1,13.73,-6.30,285.4
"2009-12-25 00:15:30",1532475,10.44,325.7,3.916,0.608,1.42,97.51531,-7.028,-5.667,35.72,0,109.1,13.73,-6.30,287.7
"2009-12-25 00:16:00",1532476,10.39,323.9,3.974,0.758,1.307,97.51531,-7.028,-5.679,35.46,0,109.1,13.73,-6.30,285.9
"2009-12-25 00:16:30",1532477,10.39,324.7,3.703,0.457,1.371,97.51531,-7.028,-5.662,35.37,0,109.1,13.73,-6.30,286.7
"2009-12-25 00:17:00",1532478,9.7,323.4,4.246,0.49,1.376,97.51531,-7.028,-5.668,35.45,0,109.1,13.73,-6.30,285.4
"2009-12-25 00:17:30",1532479,9.91,322.1,4.074,0.612,1.31,97.51531,-7.028,-5.657,35.58,0,109.1,13.74,-6.30,284.1
"2009-12-25 00:18:00",1532480,9.77,324.5,4.352,0.57,1.316,97.51531,-7.028,-5.672,35.46,0,109.1,13.74,-6.30,286.5
"2009-12-25 00:18:30",1532481,9.76,325,4.079,0.583,1.364,97.51531,-7.028,-5.653,35.45,0,109.1,13.74,-6.30,287.0
"2009-12-25 00:19:00",1532482,10.51,324.8,4.2,0.44,1.204,97.51531,-7.028,-5.672,35.45,0,109.1,13.74,-6.30,286.8
"2009-12-25 00:19:30",1532483,10.36,324.6,3.727,0.538,1.323,97.51531,-7.028,-5.668,35.37,0,109.1,13.74,-6.30,286.6
"2009-12-25 00:20:00",1532484,10.39,325.5,3.65,0.564,1.646,97.51531,-7.028,-5.679,35.35,0,109.1,13.74,-6.30,287.5
"2009-12-25 00:20:30",1532485,10.66,327.6,3.105,0.521,1.569,97.51531,-7.028,-5.678,35.25,0,109.1,13.74,-6.30,289.6
"2009-12-25 00:21:00",1532486,10.39,326.4,3.698,0.491,1.577,97.51559,-7.027,-5.665,35.02,0,109.1,13.74,-6.30,288.4
"2009-12-25 00:21:30",1532487,10.04,324,3.941,0.583,1.442,97.51643,-7.025,-5.663,35.03,0,109.1,13.74,-6.30,286.0
"2009-12-25 00:22:00",1532488,9.94,324.7,3.786,0.544,1.462,97.51753,-7.022,-5.677,35.1,0,109.1,13.75,-6.29,286.7
"2009-12-25 00:22:30",1532489,10.11,324.6,3.436,0.54,1.315,97.51946,-7.017,-5.658,35.35,0,109.1,13.75,-6.29,286.6
"2009-12-25 00:23:00",1532490,10.2,322,3.624,0.541,1.313,97.52222,-7.01,-5.658,35.37,0,109.1,13.75,-6.28,284.0
"2009-12-25 00:23:30",1532491,10.08,320.4,4.464,0.553,1.216,97.52831,-6.995,-5.654,35.33,0,109.1,13.75,-6.27,282.4
"2009-12-25 00:24:00",1532492,9.92,320,3.98,0.542,1.07,97.52998,-6.99,-5.659,35.37,0,109.1,13.75,-6.26,282.0
"2009-12-25 00:24:30",1532493,9.7,322.4,3.219,0.523,1.133,97.53413,-6.98,-5.657,35.4,0,109.1,13.75,-6.25,284.4
"2009-12-25 00:25:00",1532494,9.45,322.3,3.929,0.675,1.011,97.53606,-6.975,-5.641,35.47,0,109.1,13.75,-6.25,284.3
"2009-12-25 00:25:30",1532495,8.76,322,4.143,0.656,0.746,97.53799,-6.97,-5.648,35.66,0,109.1,13.75,-6.24,284.0
"2009-12-25 00:26:00",1532496,9,317.4,4.779,0.64,0.6,97.53966,-6.966,-5.643,36.09,0,109.1,13.75,-6.24,279.4
"2009-12-25 00:26:30",1532497,9.93,320.6,5.746,0.635,0.796,97.54021,-6.964,-5.644,36.16,0,109.1,13.75,-6.24,282.6
"2009-12-25 00:27:00",1532498,9.45,319.2,5.356,0.752,0.967,97.54021,-6.964,-5.628,36.2,0,109.1,13.75,-6.24,281.2
"2009-12-25 00:27:30",1532499,9.74,325,4.304,0.508,1.48,97.54021,-6.964,-5.641,35.77,0,109.1,13.75,-6.24,287.0
"2009-12-25 00:28:00",1532500,9.57,325,4.301,0.651,1.444,97.53992,-6.965,-5.647,35.18,0,109.1,13.76,-6.24,287.0
"2009-12-25 00:28:30",1532501,9.25,325.9,3.978,0.725,1.218,97.53738,-6.972,-5.636,34.87,0,109.1,13.76,-6.24,287.9
"2009-12-25 00:29:00",1532502,10.35,325.9,4.245,0.451,1.382,97.53312,-6.982,-5.662,34.91,0,109.1,13.76,-6.26,287.9
"2009-12-25 00:29:30",1532503,9.69,326.3,4.154,0.747,1.443,97.52715,-6.998,-5.657,34.63,0,109.1,13.75,-6.27,288.3
"2009-12-25 00:30:00",1532504,9.39,320.7,4.181,0.812,0.852,97.53053,-6.989,-5.641,34.7,0,109.1,13.75,-6.26,282.7
"2009-12-25 00:30:30",1532505,8.74,321.6,4.042,0.745,1.23,97.53106,-6.988,-5.639,35.13,0,109.1,13.75,-6.26,283.6
"2009-12-25 00:31:00",1532506,8.94,321.4,4.041,0.886,1.05,97.53106,-6.988,-5.645,35.2,0,109.1,13.75,-6.26,283.4
"2009-12-25 00:31:30",1532507,9.14,321.4,4.629,0.598,1.524,97.52821,-6.995,-5.653,35.14,0,109.1,13.75,-6.27,283.4
"2009-12-25 00:32:00",1532508,9.16,324.2,6.42,0.677,1.493,97.52845,-6.994,-5.661,34.75,0,109.1,13.75,-6.27,286.2
"2009-12-25 00:32:30",1532509,9.27,323.6,5.313,0.688,1.673,97.53072,-6.989,-5.632,34.52,0,109.1,13.75,-6.26,285.6
"2009-12-25 00:33:00",1532510,9,322.5,4.781,0.89,1.03,97.53527,-6.977,-5.648,34.44,0,109.1,13.75,-6.25,284.5
"2009-12-25 00:33:30",1532511,9.22,325.9,3.967,0.769,1.441,97.544,-6.955,-5.652,34.53,0,109.1,13.75,-6.23,287.9
"2009-12-25 00:34:00",1532512,9.02,316.5,5.172,0.652,0.728,97.5474,-6.946,-5.63,34.62,0,109.1,13.75,-6.22,278.5
"2009-12-25 00:34:30",1532513,9.19,321.5,3.987,0.589,0.691,97.54851,-6.943,-5.632,35.07,0,109.1,13.75,-6.22,283.5
"2009-12-25 00:35:00",1532514,9.73,323.8,4.349,0.927,0.898,97.54851,-6.943,-5.613,35.24,0,109.1,13.76,-6.22,285.8
"2009-12-25 00:35:30",1532515,9.6,325.4,4.829,0.838,1.49,97.54851,-6.943,-5.633,34.92,0,109.1,13.76,-6.22,287.4
"2009-12-25 00:36:00",1532516,10.05,321.5,4.79,0.649,1.327,97.54851,-6.943,-5.621,34.61,0,109.1,13.76,-6.22,283.5
"2009-12-25 00:36:30",1532517,9.79,317.7,5.151,0.565,0.91,97.54851,-6.943,-5.619,34.65,0,109.1,13.76,-6.22,279.7
"2009-12-25 00:37:00",1532518,9.85,321,4.352,0.584,1.168,97.54851,-6.943,-5.603,34.94,0,109.1,13.76,-6.22,283.0
"2009-12-25 00:37:30",1532519,9.73,319,5.109,0.589,1.025,97.54851,-6.943,-5.611,34.93,0,109.1,13.76,-6.22,281.0
"2009-12-25 00:38:00",1532520,9.39,318.2,4.785,0.619,0.956,97.54851,-6.943,-5.602,35.03,0,109.1,13.76,-6.22,280.2
"2009-12-25 00:38:30",1532521,9.87,320.8,4.059,0.608,0.993,97.5488,-6.943,-5.61,35.08,0,109.1,13.76,-6.22,282.8
"2009-12-25 00:39:00",1532522,10.11,320.6,4.639,0.662,0.898,97.5488,-6.943,-5.595,35.14,0,109.1,13.76,-6.22,282.6
"2009-12-25 00:39:30",1532523,10.31,323.7,4.158,0.686,1.194,97.54851,-6.943,-5.598,35.08,0,109.1,13.76,-6.22,285.7
"2009-12-25 00:40:00",1532524,10.46,327.2,3.96,0.651,1.313,97.54851,-6.943,-5.597,34.93,0,109.1,13.76,-6.22,289.2
"2009-12-25 00:40:30",1532525,10.25,325.6,3.7,0.672,1.245,97.54851,-6.943,-5.605,34.84,0,109.1,13.76,-6.22,287.6
"2009-12-25 00:41:00",1532526,10.09,323.1,4.364,0.682,1.16,97.54851,-6.943,-5.613,34.93,0,109.1,13.76,-6.22,285.1
"2009-12-25 00:41:30",1532527,10.42,326.8,4.078,0.624,1.68,97.54851,-6.943,-5.605,34.95,0,109.1,13.76,-6.22,288.8
"2009-12-25 00:42:00",1532528,10.36,328.2,4.047,0.666,1.519,97.54851,-6.943,-5.593,34.76,0,109.1,13.77,-6.22,290.2
"2009-12-25 00:42:30",1532529,9.96,328.1,3.821,0.67,1.641,97.54851,-6.943,-5.6,34.64,0,109.1,13.77,-6.22,290.1
"2009-12-25 00:43:00",1532530,9.28,326.9,3.975,0.695,1.761,97.54851,-6.943,-5.603,34.57,0,109.1,13.77,-6.22,288.9
"2009-12-25 00:43:30",1532531,9.15,325.2,5.114,0.706,1.805,97.54851,-6.943,-5.604,34.58,0,109.1,13.77,-6.22,287.2
"2009-12-25 00:44:00",1532532,10.06,324.2,3.259,0.773,1.308,97.54851,-6.943,-5.603,34.51,0,109.1,13.77,-6.22,286.2
"2009-12-25 00:44:30",1532533,10.51,323.7,3.936,0.546,1.657,97.54851,-6.943,-5.597,34.41,0,109.1,13.77,-6.22,285.7
"2009-12-25 00:45:00",1532534,10.29,323.9,3.389,0.774,1.474,97.54851,-6.943,-5.593,34.21,0,109.1,13.77,-6.22,285.9
"2009-12-25 00:45:30",1532535,10.21,325,4.468,0.74,1.572,97.5488,-6.943,-5.596,34.03,0,109.1,13.77,-6.22,287.0
"2009-12-25 00:46:00",1532536,10.16,325.6,4.39,0.597,1.513,97.55078,-6.938,-5.587,33.95,0,109.1,13.76,-6.21,287.6
"2009-12-25 00:46:30",1532537,9.43,327.1,4.513,0.742,1.843,97.55419,-6.929,-5.572,33.9,0,109.1,13.76,-6.20,289.1
"2009-12-25 00:47:00",1532538,9.16,329.2,4.623,0.553,1.632,97.55674,-6.922,-5.587,34.04,0,109.1,13.76,-6.19,291.2
"2009-12-25 00:47:30",1532539,8.96,329.6,4.735,0.668,1.612,97.55647,-6.923,-5.56,34.14,0,109.1,13.76,-6.20,291.6
"2009-12-25 00:48:00",1532540,9.44,327.4,4.268,0.733,1.29,97.55788,-6.919,-5.55,34.19,0,109.1,13.76,-6.19,289.4
"2009-12-25 00:48:30",1532541,8.69,328.9,3.728,0.663,1.475,97.56299,-6.906,-5.558,34.06,0,109,13.76,-6.18,290.9
"2009-12-25 00:49:00",1532542,9.26,325.4,3.563,0.624,1.382,97.56469,-6.902,-5.561,33.93,0,109.1,13.76,-6.17,287.4
"2009-12-25 00:49:30",1532543,9.06,327.9,3.263,0.665,1.337,97.56441,-6.903,-5.558,33.78,0,109.1,13.76,-6.18,289.9
"2009-12-25 00:50:00",1532544,8.87,326.8,4.222,0.555,1.409,97.56156,-6.91,-5.536,33.74,0,109.1,13.76,-6.18,288.8
"2009-12-25 00:50:30",1532545,8.63,327.3,3.442,0.634,1.299,97.56213,-6.909,-5.539,33.7,0,109.1,13.76,-6.18,289.3
"2009-12-25 00:51:00",1532546,8.44,327.2,3.498,0.738,1.267,97.56412,-6.904,-5.533,33.71,0,109.1,13.76,-6.18,289.2
"2009-12-25 00:51:30",1532547,8.3,327,3.841,0.607,1.369,97.56554,-6.9,-5.55,33.77,0,109.1,13.77,-6.17,289.0
"2009-12-25 00:52:00",1532548,8.38,325,3.817,0.614,1.342,97.56866,-6.892,-5.528,33.79,0,109.1,13.77,-6.16,287.0
"2009-12-25 00:52:30",1532549,8.28,325.9,3.301,0.561,1.331,97.57659,-6.872,-5.525,33.83,0,109.1,13.77,-6.14,287.9
"2009-12-25 00:53:00",1532550,7.9,327.9,2.939,0.839,0.995,97.58256,-6.857,-5.528,33.89,0,109.1,13.77,-6.13,289.9
"2009-12-25 00:53:30",1532551,7.672,330.5,4.485,0.655,1.41,97.58339,-6.855,-5.507,33.96,0,109.1,13.77,-6.13,292.5
"2009-12-25 00:54:00",1532552,7.442,329.4,4.044,0.801,1.199,97.58366,-6.854,-5.511,34.11,0,109.1,13.77,-6.13,291.4
"2009-12-25 00:54:30",1532553,7.589,325.1,2.281,0.729,0.926,97.58284,-6.856,-5.508,34.12,0,109.1,13.77,-6.13,287.1
"2009-12-25 00:55:00",1532554,7.879,323.3,3.69,0.624,0.853,97.58284,-6.856,-5.485,34.09,0,109.1,13.77,-6.13,285.3
"2009-12-25 00:55:30",1532555,7.963,324.1,3.279,0.727,0.788,97.58256,-6.857,-5.486,34.09,0,109.1,13.77,-6.13,286.1
"2009-12-25 00:56:00",1532556,7.986,324.3,3.835,0.628,0.914,97.58256,-6.857,-5.494,34.03,0,109.1,13.77,-6.13,286.3
"2009-12-25 00:56:30",1532557,8.08,324.8,2.836,0.605,0.875,97.5834,-6.855,-5.479,34,0,109.1,13.77,-6.13,286.8
"2009-12-25 00:57:00",1532558,7.692,327.6,5.017,0.623,1.081,97.58707,-6.845,-5.467,33.93,0,109.1,13.77,-6.12,289.6
"2009-12-25 00:57:30",1532559,7.107,334.2,3.854,0.621,1.074,97.58935,-6.839,-5.45,33.96,0,109.1,13.77,-6.11,296.2
"2009-12-25 00:58:00",1532560,6.899,337.1,3.956,0.621,0.946,97.58908,-6.84,-5.464,33.99,0,109.1,13.77,-6.11,299.1
"2009-12-25 00:58:30",1532561,7.344,333.7,4.765,0.634,0.524,97.59106,-6.835,-5.461,34.02,0,109,13.77,-6.11,295.7
"2009-12-25 00:59:00",1532562,7.69,330,4.363,0.748,0.373,97.59277,-6.831,-5.446,33.96,0,109.1,13.77,-6.10,292.0
"2009-12-25 00:59:30",1532563,7.623,327.8,4.118,0.719,0.453,97.59389,-6.828,-5.455,33.89,0,109.1,13.77,-6.10,289.8
"2009-12-25 01:00:00",1532564,7.53,327.2,5.064,0.796,0.59,97.5956,-6.823,-5.452,33.84,0,109.1,13.77,-6.10,289.2
"2009-12-25 01:00:30",1532565,7.599,333,3.833,0.631,0.759,97.60182,-6.808,-5.437,33.76,0,109.1,13.77,-6.08,295.0
"2009-12-25 01:01:00",1532566,7.729,331.6,3.56,0.762,0.596,97.60918,-6.789,-5.44,33.73,0,109.1,13.77,-6.06,293.6
"2009-12-25 01:01:30",1532567,7.746,339.3,3.33,0.801,0.517,97.616,-6.772,-5.43,33.72,0,109.1,13.78,-6.04,301.3
"2009-12-25 01:02:00",1532568,7.864,340.8,2.983,0.799,0.364,97.61769,-6.767,-5.433,33.72,0,109.1,13.77,-6.04,302.8
"2009-12-25 01:02:30",1532569,7.827,335.6,3.455,0.675,0.401,97.62104,-6.759,-5.422,33.76,0,109.1,13.77,-6.03,297.6
"2009-12-25 01:03:00",1532570,7.433,337.4,4.793,0.542,0.575,97.61938,-6.763,-5.411,33.71,0,109.1,13.77,-6.03,299.4
"2009-12-25 01:03:30",1532571,7.195,330.6,4.601,0.689,0.438,97.62022,-6.761,-5.415,33.7,0,109.1,13.77,-6.03,292.6
"2009-12-25 01:04:00",1532572,6.473,336,3.836,0.496,0.443,97.62132,-6.758,-5.393,33.64,0,109.1,13.77,-6.03,298.0
"2009-12-25 01:04:30",1532573,7.159,325.7,4.455,0.559,0.369,97.62105,-6.759,-5.393,33.71,0,109.1,13.77,-6.03,287.7
"2009-12-25 01:05:00",1532574,6.987,325.5,4.588,0.729,0.15,97.62326,-6.753,-5.388,33.69,0,109.1,13.77,-6.02,287.5
"2009-12-25 01:05:30",1532575,6.759,326.3,2.723,0.87,0.004,97.62354,-6.752,-5.387,33.64,0,109.1,13.77,-6.02,288.3
"2009-12-25 01:06:00",1532576,7.032,327.1,4.29,0.688,0.287,97.62603,-6.746,-5.382,33.65,0,109.1,13.77,-6.02,289.1
"2009-12-25 01:06:30",1532577,6.839,329.3,3.311,0.617,0.445,97.6269,-6.744,-5.365,33.67,0,109.1,13.77,-6.02,291.3
"2009-12-25 01:07:00",1532578,6.523,330.5,4.991,0.727,0.447,97.63256,-6.729,-5.364,33.61,0,109.1,13.77,-6.00,292.5
"2009-12-25 01:07:30",1532579,6.639,337,3.876,0.715,0.285,97.63814,-6.715,-5.369,33.53,0,109.1,13.77,-5.99,299.0
"2009-12-25 01:08:00",1532580,6.793,336.9,3.394,0.735,0.121,97.64269,-6.704,-5.369,33.4,0,109.1,13.77,-5.98,298.9
"2009-12-25 01:08:30",1532581,7.331,335.9,5.332,0.573,0.004,97.64718,-6.692,-5.353,33.25,0,109.1,13.78,-5.96,297.9
"2009-12-25 01:09:00",1532582,7.271,337.3,4.897,0.766,-0.02,97.6433,-6.702,-5.361,33.2,0,109.1,13.78,-5.97,299.3
"2009-12-25 01:09:30",1532583,7.025,330.8,4.219,0.802,-0.277,97.64803,-6.69,-5.362,33.14,0,109.1,13.78,-5.96,292.8
"2009-12-25 01:10:00",1532584,7.136,324.8,3.671,0.81,-0.252,97.64605,-6.695,-5.345,33.14,0,109.1,13.78,-5.97,286.8
"2009-12-25 01:10:30",1532585,6.675,320.6,2.816,0.818,0.018,97.65189,-6.68,-5.344,33.14,0,109.1,13.78,-5.95,282.6
"2009-12-25 01:11:00",1532586,7.088,318.6,5.365,0.937,0.269,97.65992,-6.66,-5.343,32.5,0,109.1,13.78,-5.93,280.6
"2009-12-25 01:11:30",1532587,6.301,318.6,5.635,0.88,0.166,97.66894,-6.637,-5.336,31.83,0,109.1,13.78,-5.91,280.6
"2009-12-25 01:12:00",1532588,6.275,322.2,5.777,0.893,-0.295,97.66867,-6.638,-5.344,31.84,0,109.1,13.78,-5.91,284.2
"2009-12-25 01:12:30",1532589,7.755,313.4,5.194,0.706,0.02,97.6659,-6.645,-5.33,32.04,0,109.1,13.78,-5.92,275.4
"2009-12-25 01:13:00",1532590,7.983,311.7,4.989,0.711,-0.167,97.67117,-6.631,-5.332,32.06,0,109.1,13.78,-5.90,273.7
"2009-12-25 01:13:30",1532591,7.597,323.5,4.727,0.724,-0.023,97.67117,-6.631,-5.313,32.19,0,109.1,13.78,-5.90,285.5
"2009-12-25 01:14:00",1532592,6.972,329.3,3.963,0.896,0.236,97.67144,-6.631,-5.319,32.36,0,109.1,13.78,-5.90,291.3
"2009-12-25 01:14:30",1532593,6.715,334,5.056,0.881,0.239,97.67089,-6.632,-5.319,31.92,0,109.1,13.79,-5.90,296.0
"2009-12-25 01:15:00",1532594,6.818,333.7,4.046,0.854,-0.008,97.67338,-6.626,-5.321,31.59,0,109.1,13.79,-5.90,295.7
"2009-12-25 01:15:30",1532595,8.38,326.8,4.479,0.884,-0.112,97.67338,-6.626,-5.303,31.77,0,109.1,13.78,-5.90,288.8
"2009-12-25 01:16:00",1532596,8.58,319.9,6.103,0.671,0.267,97.67477,-6.622,-5.306,31.36,0,109.1,13.79,-5.89,281.9
"2009-12-25 01:16:30",1532597,8.34,325.4,4.435,0.728,0.657,97.6731,-6.626,-5.302,31,0,109.1,13.79,-5.90,287.4
"2009-12-25 01:17:00",1532598,7.964,323.3,3.599,0.909,0.276,97.67422,-6.623,-5.305,30.68,0,109.1,13.79,-5.89,285.3
"2009-12-25 01:17:30",1532599,7.137,324.4,4.547,0.794,0.433,97.67338,-6.626,-5.3,30.96,0,109.1,13.79,-5.90,286.4
"2009-12-25 01:18:00",1532600,6.91,320.3,5.47,0.752,0.429,97.67283,-6.627,-5.289,31.14,0,109.1,13.79,-5.90,282.3
"2009-12-25 01:18:30",1532601,8.44,323.6,3.364,0.72,0.234,97.67283,-6.627,-5.312,31.34,0,109.1,13.79,-5.90,285.6
"2009-12-25 01:19:00",1532602,8.35,326,3.893,0.771,0.415,97.67449,-6.623,-5.288,31.3,0,109.1,13.78,-5.89,288.0
"2009-12-25 01:19:30",1532603,7.67,327.7,3.775,0.745,0.388,97.67422,-6.623,-5.294,31.33,0,109.1,13.78,-5.89,289.7
"2009-12-25 01:20:00",1532604,7.596,326.5,3.961,0.782,0.438,97.67561,-6.62,-5.298,31.43,0,109.1,13.77,-5.89,288.5
"2009-12-25 01:20:30",1532605,6.893,329.4,3.124,0.924,0.533,97.67422,-6.623,-5.288,31.41,0,109.1,13.77,-5.89,291.4
"2009-12-25 01:21:00",1532606,7.344,326.8,4.18,0.738,0.358,97.67532,-6.621,-5.285,31.41,0,109.1,13.78,-5.89,288.8
"2009-12-25 01:21:30",1532607,6.574,330.1,3.875,0.707,0.321,97.67477,-6.622,-5.296,31.54,0,109.1,13.78,-5.89,292.1
"2009-12-25 01:22:00",1532608,6.795,332.4,6.017,0.722,0.31,97.67561,-6.62,-5.309,31.61,0,109.1,13.78,-5.89,294.4
"2009-12-25 01:22:30",1532609,6.804,328.7,5.049,0.768,0.065,97.67447,-6.623,-5.307,31.58,0,109.1,13.77,-5.89,290.7
"2009-12-25 01:23:00",1532610,6.936,323.8,5.389,0.835,-0.011,97.6617,-6.655,-5.315,31.31,0,109.1,13.77,-5.93,285.8
"2009-12-25 01:23:30",1532611,6.336,326.2,5.026,0.803,-0.127,97.6563,-6.669,-5.322,31.18,0,109.1,13.78,-5.94,288.2
"2009-12-25 01:24:00",1532612,6.118,325.3,4.4,0.807,-0.233,97.658,-6.665,-5.338,31.08,0,109.1,13.78,-5.94,287.3
"2009-12-25 01:24:30",1532613,5.865,322,8.13,0.749,-0.247,97.65376,-6.676,-5.335,31.01,0,109.1,13.79,-5.95,284.0
"2009-12-25 01:25:00",1532614,5.615,329.4,5.151,0.825,-0.519,97.64893,-6.688,-5.348,31,0,109.1,13.79,-5.96,291.4
"2009-12-25 01:25:30",1532615,6.446,326.7,5.652,0.798,-0.783,97.64722,-6.692,-5.34,31.08,0,109.1,13.79,-5.96,288.7
"2009-12-25 01:26:00",1532616,7.244,320.7,3.735,0.856,-0.823,97.64211,-6.705,-5.338,31.19,0,109.1,13.79,-5.98,282.7
"2009-12-25 01:26:30",1532617,8.13,325.3,2.808,0.731,-0.741,97.64182,-6.706,-5.362,31.27,0,109.1,13.79,-5.98,287.3
"2009-12-25 01:27:00",1532618,7.143,328.5,4.341,0.921,-0.443,97.64155,-6.707,-5.373,31.31,0,109.1,13.79,-5.98,290.5
"2009-12-25 01:27:30",1532619,6.629,329.1,4.167,0.729,-0.185,97.64182,-6.706,-5.377,31.31,0,109.1,13.79,-5.98,291.1
"2009-12-25 01:28:00",1532620,6.764,330,5.672,0.784,-0.221,97.63502,-6.723,-5.386,31.27,0,109.1,13.79,-5.99,292.0
"2009-12-25 01:28:30",1532621,7.499,317.9,9.1,0.742,-0.099,97.62592,-6.746,-5.387,31.22,0,109.1,13.79,-6.02,279.9
"2009-12-25 01:29:00",1532622,8.45,319,6.778,1.339,-0.375,97.61939,-6.763,-5.391,31.04,0,109.1,13.79,-6.03,281.0
"2009-12-25 01:29:30",1532623,8.82,323.3,3.978,0.83,-0.143,97.6154,-6.773,-5.399,31.05,0,109.1,13.79,-6.04,285.3
"2009-12-25 01:30:00",1532624,9.13,324.7,4.411,0.828,0.174,97.61028,-6.786,-5.407,30.98,0,109.1,13.79,-6.06,286.7
"2009-12-25 01:30:30",1532625,8.46,326.9,3.727,0.742,0.303,97.6097,-6.788,-5.436,30.8,0,109.1,13.79,-6.06,288.9
"2009-12-25 01:31:00",1532626,8.62,319.9,4.351,0.861,0.279,97.60942,-6.788,-5.441,30.94,0,109.1,13.79,-6.06,281.9
"2009-12-25 01:31:30",1532627,8.19,324.1,3.61,0.801,0.214,97.6097,-6.788,-5.436,31.19,0,109.1,13.79,-6.06,286.1
"2009-12-25 01:32:00",1532628,8.03,327.6,4.94,0.819,0.243,97.60942,-6.788,-5.455,31.17,0,109.1,13.79,-6.06,289.6
"2009-12-25 01:32:30",1532629,7.987,321.8,3.32,0.854,0.293,97.60999,-6.787,-5.464,31.24,0,109.1,13.79,-6.06,283.8
"2009-12-25 01:33:00",1532630,9.42,319,4.833,1.181,0.279,97.60513,-6.799,-5.463,31.33,0,109.1,13.79,-6.07,281.0
"2009-12-25 01:33:30",1532631,8.86,323.9,5.883,0.787,0.208,97.59237,-6.832,-5.477,31.2,0,109.1,13.79,-6.10,285.9
"2009-12-25 01:34:00",1532632,8.12,323.6,4.763,0.801,0.347,97.58674,-6.846,-5.479,31.32,0,109.1,13.79,-6.12,285.6
"2009-12-25 01:34:30",1532633,8.54,325.9,3.376,0.886,0.384,97.5805,-6.862,-5.494,31.38,0,109.1,13.79,-6.13,287.9
"2009-12-25 01:35:00",1532634,8.35,324.3,5.615,0.977,0.217,97.57736,-6.87,-5.507,31.43,0,109.1,13.79,-6.14,286.3
"2009-12-25 01:35:30",1532635,8.86,323.3,4.842,0.932,0.289,97.57647,-6.872,-5.507,31.54,0,109.1,13.79,-6.14,285.3
"2009-12-25 01:36:00",1532636,9.34,323.4,3.262,0.854,0.299,97.57675,-6.871,-5.521,31.54,0,109.1,13.79,-6.14,285.4
"2009-12-25 01:36:30",1532637,9.1,326.3,3.323,0.682,0.662,97.57506,-6.876,-5.534,31.5,0,109.1,13.79,-6.15,288.3
"2009-12-25 01:37:00",1532638,9.08,323.1,2.451,0.773,0.601,97.56143,-6.91,-5.534,31.25,0,109.1,13.79,-6.18,285.1
"2009-12-25 01:37:30",1532639,9.28,324.3,2.778,0.791,0.565,97.55232,-6.934,-5.564,31.25,0,109.1,13.79,-6.21,286.3
"2009-12-25 01:38:00",1532640,9.12,323.2,5.103,0.725,0.504,97.54887,-6.942,-5.576,31.43,0,109.1,13.79,-6.21,285.2
"2009-12-25 01:38:30",1532641,9.15,320.8,3.857,0.655,0.543,97.54464,-6.953,-5.575,31.57,0,109.1,13.79,-6.23,282.8
"2009-12-25 01:39:00",1532642,9.74,324.7,4.361,1.005,0.415,97.54519,-6.952,-5.592,31.66,0,109.1,13.79,-6.22,286.7
"2009-12-25 01:39:30",1532643,10.79,324.6,3.927,1.018,0.558,97.54491,-6.952,-5.604,31.66,0,109.1,13.79,-6.22,286.6
"2009-12-25 01:40:00",1532644,10.61,318.9,6.743,0.915,0.604,97.54519,-6.952,-5.589,31.53,0,109.1,13.79,-6.22,280.9
"2009-12-25 01:40:30",1532645,10.45,325,3.874,0.71,0.891,97.54598,-6.95,-5.612,31.64,0,109.1,13.79,-6.22,287.0
"2009-12-25 01:41:00",1532646,11.79,321.8,5.239,1.177,0.779,97.53352,-6.981,-5.631,31.61,0,109.1,13.8,-6.25,283.8
"2009-12-25 01:41:30",1532647,12.36,318.7,4.611,0.817,0.803,97.5247,-7.004,-5.631,31.52,0,109.1,13.8,-6.28,280.7
"2009-12-25 01:42:00",1532648,11.63,319.4,4.496,1.046,0.777,97.51905,-7.018,-5.638,31.6,0,109.1,13.8,-6.29,281.4
"2009-12-25 01:42:30",1532649,12.99,314.1,4.183,0.773,1.181,97.51225,-7.036,-5.661,31.68,0,109.1,13.8,-6.31,276.1
"2009-12-25 01:43:00",1532650,13.39,318.8,2.742,0.978,0.974,97.51252,-7.035,-5.683,31.59,0,109.1,13.8,-6.31,280.8
"2009-12-25 01:43:30",1532651,12.76,321.8,3.321,0.868,1.094,97.51334,-7.033,-5.661,31.68,0,109.1,13.8,-6.31,283.8
"2009-12-25 01:44:00",1532652,12.16,318.9,4.778,0.847,1.166,97.51334,-7.033,-5.69,31.76,0,109.1,13.8,-6.31,280.9
"2009-12-25 01:44:30",1532653,12.31,317.6,4.018,0.857,1.291,97.51164,-7.037,-5.703,31.86,0,109.1,13.8,-6.31,279.6
"2009-12-25 01:45:00",1532654,12.05,319,2.887,0.823,1.106,97.50086,-7.065,-5.699,31.94,0,109.1,13.8,-6.34,281.0